Regional Weather Roundup
Issued by NWS Albuquerque, NM

Current Version | Previous Version | Text Only | Print | Product List | Glossary On
Versions: 1 2 3 4 5 6 7 8 9 10 11 12 13 14 15 16 17 18 19 20 21 22 23 24 25 26 27 28 29 30 31 32 33 34 35 36 37 38 39 40 41 42 43 44 45 46 47 48 49 50
113 NZUS01 KABQ 210210 RWRABQ NEW MEXICO REGIONAL WEATHER ROUNDUP NATIONAL WEATHER SERVICE ALBUQUERQUE NM 800 PM MDT TUE APR 20 2021 -----NORTHERN NEW MEXICO AND NEARBY AREAS----- CITY SKY/WX TMP DP RH WIND PRES REMARKS ALBUQUERQUE MOCLDY 53 20 27 E23G39 29.97R BELEN FAIR 60 17 19 E12 29.95R SOCORRO FAIR 60 19 21 S7G25 29.95R CITY SKY/WX TMP DP RH WIND PRES REMARKS SANTA FE CLOUDY 45 19 35 SE22G36 30.07R LOS ALAMOS CLOUDY 45 18 34 S9 30.09R TAOS MOCLDY 48 19 31 SW16G24 30.03R ANGEL FIRE FAIR 32 20 61 S21 30.09R WCI 20 FARMINGTON MOCLDY 57 11 16 NW7 29.94F GRANTS PTCLDY 57 8 14 NW6 30.00R GALLUP PTCLDY 60 11 14 NW7 29.97S FLAGSTAFF CLEAR 57 9 14 W9 30.01S DURANGO PTCLDY 49 6 17 W10 30.00R CITY SKY/WX TMP DP RH WIND PRES REMARKS ALAMOSA PTCLDY 36 20 52 E15G23 29.98R DENVER PTCLDY 31 17 56 CALM 30.20R CLAYTON CLEAR 33 14 45 E9 30.19R WCI 25 RATON CLOUDY 38 17 42 SW7 30.14R LAS VEGAS MOCLDY 32 16 51 SE10 30.15R WCI 24 CLINES CORNERS MOCLDY 35 18 49 SE16 30.13R WCI 25 SANTA ROSA FAIR 42 16 34 SE7 30.15R TUCUMCARI PTCLDY 44 17 33 E7 30.17R CLOVIS (AFB) CLEAR 42 17 35 E10 30.19R CLOVIS CLEAR 41 18 39 E8 30.20R AMARILLO CLEAR 37 15 40 NE8 30.21R -----SOUTHERN NEW MEXICO AND NEARBY AREAS----- CITY SKY/WX TMP DP RH WIND PRES REMARKS T OR C CLEAR 73 6 7 W16 29.89R DEMING CLEAR 72 9 8 W9 29.92R TUCSON CLEAR 83 8 6 W9 29.85S EL PASO PTCLDY 64 24 21 E12G17 29.97R LAS CRUCES CLEAR 84 29 13 S7 29.95R CITY SKY/WX TMP DP RH WIND PRES REMARKS ALAMOGORDO CLEAR 65 21 19 SE22G30 29.95R RUIDOSO PTCLDY 37 19 48 SE15 30.16R ROSWELL CLEAR 56 22 26 SE5 30.12R CARLSBAD N/A 55 24 30 SE9 30.12 HOBBS CLEAR 48 21 34 E10 30.16R

USA.gov is the U.S. government's official web portal to all federal, state and local government web resources and services.